Location: Bonningues
(50.7927°N, 2.0150°E)
Time: 04:34:36
(UTC+00:00)

Geosat - Pass Details

Date: 08 August 2020
Orbit: 763 x 765 km, 108.0° (Epoch: 19 September)

Event Time Altitude Azimuth Distance (km) Brightness Sun altitude
Exits shadow 22:20:49 42° 152° (SSE) 1,078 4.3 -20.1°
Maximum altitude 22:22:34 86° 240° (WSW) 774 3.9 -20.2°
Drops below altitude 10° 22:27:37 10° 329° (NNW) 2,313 7.7 -20.6°
Sets 22:29:55 0° 330° (NNW) 3,244 8.8 -20.7°
